TimeCST,TemperatureF,Dew PointF,Humidity,Sea Level PressureIn,VisibilityMPH,Wind Direction,Wind SpeedMPH,Gust SpeedMPH,PrecipitationIn,Events,Conditions,WindDirDegrees,DateUTC
12:16 AM,23.0,19.4,86,29.63,1.8,NW,21.9,34.5,N/A,,Overcast,320,2013-02-11 06:16:00
12:53 AM,21.9,19.0,89,29.74,1.5,NW,26.5,33.4,0.00,Snow,Light Snow,320,2013-02-11 06:53:00
1:02 AM,21.2,19.4,93,29.67,1.2,NW,24.2,34.5,0.00,Snow,Light Snow,320,2013-02-11 07:02:00
1:13 AM,21.2,19.4,93,29.67,1.5,NW,25.3,34.5,0.00,Snow,Light Snow,320,2013-02-11 07:13:00
1:29 AM,21.2,19.4,93,29.68,1.2,NW,26.5,33.4,0.00,Snow,Light Snow,320,2013-02-11 07:29:00
1:46 AM,21.2,17.6,86,29.69,1.2,NW,26.5,36.8,0.00,Snow,Light Snow,320,2013-02-11 07:46:00
1:53 AM,21.0,18.0,88,29.78,1.2,NW,23.0,34.5,0.00,Snow,Light Snow,320,2013-02-11 07:53:00
2:15 AM,19.4,17.6,93,29.71,1.5,NW,25.3,33.4,0.00,Snow,Light Snow,320,2013-02-11 08:15:00
2:48 AM,19.4,17.6,93,29.73,1.2,NNW,29.9,35.7,0.00,Snow,Light Snow,330,2013-02-11 08:48:00
2:53 AM,19.9,18.0,92,29.81,1.2,NNW,26.5,35.7,0.00,Snow,Light Snow,330,2013-02-11 08:53:00
3:20 AM,19.4,17.6,93,29.75,1.5,NNW,24.2,34.5,0.00,Snow,Light Snow,330,2013-02-11 09:20:00
3:53 AM,19.9,17.1,89,29.83,1.5,NNW,23.0,35.7,0.00,Snow,Light Snow,330,2013-02-11 09:53:00
4:29 AM,19.4,15.8,86,29.77,1.5,NNW,27.6,39.1,0.00,Snow,Light Snow,340,2013-02-11 10:29:00
4:34 AM,19.4,15.8,86,29.77,2.0,NNW,24.2,34.5,0.00,Snow,Light Snow,340,2013-02-11 10:34:00
4:43 AM,19.4,15.8,86,29.78,1.2,NNW,29.9,35.7,0.00,Snow,Light Snow,340,2013-02-11 10:43:00
4:50 AM,19.4,15.8,86,29.79,1.5,NNW,32.2,40.3,0.00,Snow,Light Snow,340,2013-02-11 10:50:00
4:53 AM,19.0,16.0,88,29.87,1.5,NNW,31.1,40.3,0.00,Snow,Light Snow,340,2013-02-11 10:53:00
5:21 AM,17.6,15.8,93,29.81,1.5,NNW,25.3,35.7,0.00,Snow,Light Snow,340,2013-02-11 11:21:00
5:39 AM,17.6,15.8,93,29.82,2.0,NNW,23.0,32.2,0.00,Snow,Light Snow,330,2013-02-11 11:39:00
5:53 AM,19.0,16.0,88,29.90,2.0,NNW,26.5,33.4,0.00,Snow,Light Snow,340,2013-02-11 11:53:00
6:07 AM,19.4,15.8,86,29.83,3.0,NNW,23.0,32.2,0.00,Snow,Light Snow,330,2013-02-11 12:07:00
6:53 AM,18.0,16.0,92,29.94,2.5,NNW,18.4,-,0.00,Snow,Light Snow,330,2013-02-11 12:53:00
7:08 AM,17.6,15.8,93,29.86,3.0,NNW,23.0,31.1,0.00,Snow,Light Snow,330,2013-02-11 13:08:00
7:42 AM,17.6,15.8,93,29.88,2.5,NNW,25.3,35.7,0.00,Snow,Light Snow,340,2013-02-11 13:42:00
7:53 AM,18.0,15.1,88,29.97,1.2,NNW,20.7,33.4,0.00,Snow,Light Snow,340,2013-02-11 13:53:00
8:01 AM,17.6,15.8,93,29.89,2.0,NNW,21.9,29.9,0.00,Snow,Light Snow,330,2013-02-11 14:01:00
8:09 AM,17.6,15.8,93,29.89,3.0,NNW,20.7,29.9,0.00,Snow,Light Snow,330,2013-02-11 14:09:00
8:15 AM,17.6,15.8,93,29.89,1.5,NW,19.6,26.5,0.00,Snow,Light Snow,320,2013-02-11 14:15:00
8:17 AM,17.6,15.8,93,29.90,0.8,NNW,18.4,26.5,0.00,Snow,Light Snow,330,2013-02-11 14:17:00
8:27 AM,17.6,15.8,93,29.90,0.2,NNW,23.0,28.8,0.00,Fog-Snow,Snow,330,2013-02-11 14:27:00
8:33 AM,17.6,14.0,86,29.90,1.0,NNW,23.0,31.1,0.00,Snow,Light Snow,330,2013-02-11 14:33:00
8:53 AM,17.1,14.0,88,29.99,1.2,NW,20.7,29.9,0.00,Snow,Light Snow,320,2013-02-11 14:53:00
8:57 AM,17.6,14.0,86,29.91,2.0,NNW,20.7,29.9,0.00,Snow,Light Snow,330,2013-02-11 14:57:00
9:06 AM,17.6,14.0,86,29.92,1.8,NW,20.7,-,0.00,Snow,Light Snow,320,2013-02-11 15:06:00
9:15 AM,17.6,14.0,86,29.92,2.5,NW,20.7,26.5,0.00,Snow,Light Snow,320,2013-02-11 15:15:00
9:32 AM,17.6,14.0,86,29.93,1.5,NNW,19.6,-,0.00,Snow,Light Snow,330,2013-02-11 15:32:00
9:53 AM,17.1,14.0,88,30.02,1.2,NW,19.6,27.6,0.00,Snow,Light Snow,320,2013-02-11 15:53:00
10:44 AM,17.6,14.0,86,29.96,2.0,NNW,21.9,-,0.00,Snow,Light Snow,330,2013-02-11 16:44:00
10:53 AM,18.0,14.0,84,30.05,2.0,NNW,21.9,32.2,0.00,Snow,Light Snow,330,2013-02-11 16:53:00
11:05 AM,17.6,14.0,86,29.97,1.5,NW,20.7,-,0.00,Snow,Light Snow,320,2013-02-11 17:05:00
11:24 AM,17.6,15.8,93,29.98,1.2,NNW,16.1,-,0.00,Snow,Light Snow,330,2013-02-11 17:24:00
11:29 AM,19.4,14.0,80,29.98,2.0,NNW,16.1,-,0.00,Snow,Light Snow,330,2013-02-11 17:29:00
11:53 AM,19.0,14.0,81,30.07,3.0,NW,17.3,-,0.00,Snow,Light Snow,320,2013-02-11 17:53:00
12:01 PM,19.4,14.0,80,29.98,2.5,NW,20.7,-,0.00,Snow,Light Snow,310,2013-02-11 18:01:00
12:28 PM,17.6,12.2,79,29.98,1.8,NW,20.7,-,0.00,Snow,Light Snow,310,2013-02-11 18:28:00
12:37 PM,17.6,12.2,79,29.98,2.0,NW,21.9,28.8,0.00,Snow,Light Snow,310,2013-02-11 18:37:00
12:53 PM,18.0,12.9,81,30.06,2.0,NW,23.0,29.9,0.00,Snow,Light Snow,320,2013-02-11 18:53:00
1:05 PM,17.6,12.2,79,29.98,4.0,NW,20.7,-,0.00,Snow,Light Snow,320,2013-02-11 19:05:00
1:53 PM,19.0,14.0,81,30.07,8.0,NW,18.4,-,0.00,,Overcast,320,2013-02-11 19:53:00
2:08 PM,17.6,14.0,86,29.98,1.8,NW,15.0,-,0.00,Snow,Light Snow,310,2013-02-11 20:08:00
2:12 PM,17.6,14.0,86,29.98,1.0,NW,13.8,-,0.00,Snow,Light Snow,310,2013-02-11 20:12:00
2:43 PM,17.6,14.0,86,29.99,0.8,WNW,16.1,-,0.00,Snow,Light Snow,300,2013-02-11 20:43:00
2:53 PM,18.0,14.0,84,30.08,1.0,WNW,17.3,-,0.00,Snow,Light Snow,300,2013-02-11 20:53:00
3:02 PM,17.6,12.2,79,29.99,2.0,NW,15.0,-,0.00,Snow,Light Snow,310,2013-02-11 21:02:00
3:41 PM,17.6,12.2,79,30.00,3.0,NW,15.0,-,0.00,Snow,Light Snow,310,2013-02-11 21:41:00
3:53 PM,18.0,12.9,81,30.10,4.0,WNW,15.0,-,0.00,Snow,Light Snow,300,2013-02-11 21:53:00
4:53 PM,17.1,12.0,81,30.09,10.0,NW,12.7,-,0.00,,Overcast,310,2013-02-11 22:53:00
5:53 PM,18.0,12.9,81,30.08,10.0,WNW,11.5,-,N/A,,Overcast,300,2013-02-11 23:53:00
6:53 PM,18.0,12.9,81,30.09,10.0,WNW,9.2,-,N/A,,Overcast,290,2013-02-12 00:53:00
7:53 PM,18.0,14.0,84,30.09,10.0,West,6.9,-,N/A,,Overcast,270,2013-02-12 01:53:00
8:53 PM,18.0,14.0,84,30.09,10.0,SW,8.1,-,N/A,,Overcast,230,2013-02-12 02:53:00
9:53 PM,17.1,15.1,92,30.08,10.0,SW,6.9,-,N/A,,Overcast,220,2013-02-12 03:53:00
10:22 PM,14.0,12.2,93,29.99,10.0,SSW,5.8,-,N/A,,Scattered Clouds,210,2013-02-12 04:22:00
10:53 PM,12.0,10.9,95,30.08,10.0,South,4.6,-,N/A,,Clear,190,2013-02-12 04:53:00
11:53 PM,8.1,7.0,95,30.07,10.0,SW,9.2,-,N/A,,Clear,220,2013-02-12 05:53:00